GW0007 Weather Reports


time (UTC)temp
C
wind
direction
speed
KPH
gust
KPH
rain 1hr
cm
rain 24hr
cm
rain mn
cm
humidity
%
barometer
mb
20260504190047 10 29 4.8 14.5 0.00 0.00 0.00 48 1014.4
20260504184538 10 20 11.3 19.3 0.00 0.00 0.00 47 1014.3
20260504183037 10 29 14.5 24.1 0.00 0.00 0.00 45 1014.4
20260504181535 11 71 14.5 22.5 0.00 0.00 0.00 43 1014.4
20260504180036 11 82 12.9 22.5 0.00 0.00 0.00 41 1014.6
20260504174540 11 29 11.3 29.0 0.00 0.00 0.00 44 1014.6
20260504173037 11 22 14.5 22.5 0.00 0.00 0.00 45 1014.7
20260504171536 11 88 12.9 22.5 0.00 0.00 0.00 45 1014.9
20260504081540 5 0 0.0 3.2 0.00 0.00 0.00 69 1009.4
20260504050113 10 258 0.0 6.4 0.00 0.00 0.00 49 1009.0
20260504044546 10 276 1.6 4.8 0.00 0.00 0.00 50 1009.1
20260504043039 11 245 3.2 6.4 0.00 0.00 0.00 47 1008.9
20260504041537 13 0 1.6 4.8 0.00 0.00 0.00 43 1008.9
20260504040040 15 25 3.2 8.0 0.00 0.00 0.00 40 1008.8
20260504034538 15 125 3.2 8.0 0.00 0.00 0.00 34 1008.7
20260504033041 14 68 1.6 8.0 0.00 0.00 0.00 37 1008.4
20260504031541 15 0 1.6 11.3 0.00 0.00 0.00 38 1008.2
20260504030042 16 0 0.0 8.0 0.00 0.00 0.00 34 1008.0
20260504024537 17 339 3.2 8.0 0.00 0.00 0.00 33 1007.9
20260504023043 18 304 0.0 6.4 0.00 0.00 0.00 31 1007.8
20260504021539 20 293 6.4 12.9 0.00 0.00 0.00 28 1007.8
20260504020037 21 309 4.8 9.7 0.00 0.00 0.00 25 1007.9
20260504014552 21 319 6.4 12.9 0.00 0.00 0.00 24 1008.0
20260504013047 22 259 8.0 17.7 0.00 0.00 0.00 25 1007.9
20260504011545 22 143 11.3 25.7 0.00 0.00 0.00 23 1008.0
20260504010046 22 316 11.3 22.5 0.00 0.00 0.00 23 1008.0
20260504004538 22 282 9.7 22.5 0.00 0.00 0.00 24 1008.1
20260504003040 22 298 20.9 32.2 0.00 0.00 0.00 22 1008.2
20260504001551 22 269 16.1 35.4 0.00 0.00 0.00 22 1008.3
20260504000045 23 290 12.9 32.2 0.00 0.00 0.00 23 1008.4
20260503234539 22 302 30.6 43.5 0.00 0.00 0.00 21 1008.5
20260503233035 23 343 16.1 29.0 0.00 0.00 0.00 22 1008.5
20260503231541 22 289 19.3 32.2 0.00 0.00 0.00 23 1008.8
20260503230045 22 280 19.3 37.0 0.00 0.00 0.00 22 1009.0
20260503224543 22 310 14.5 30.6 0.00 0.00 0.00 21 1009.1
20260503223039 22 309 19.3 32.2 0.00 0.00 0.00 21 1009.1
20260503221546 22 334 12.9 40.2 0.00 0.00 0.00 22 1009.4
20260503220056 22 311 24.1 38.6 0.00 0.00 0.00 20 1009.6
20260503214542 22 266 12.9 30.6 0.00 0.00 0.00 21 1009.7
20260503213038 22 316 17.7 37.0 0.00 0.00 0.00 21 1009.9
20260503211537 22 285 14.5 41.8 0.00 0.00 0.00 21 1010.4
20260503210053 22 306 11.3 33.8 0.00 0.00 0.00 24 1010.5
20260503204557 21 305 16.1 43.5 0.00 0.00 0.00 24 1010.7
20260503203053 21 323 25.7 41.8 0.00 0.00 0.00 22 1010.7
20260503201546 21 305 25.7 46.7 0.00 0.00 0.00 24 1011.0
20260503200047 21 279 24.1 46.7 0.00 0.00 0.00 24 1011.1
20260503194550 21 285 19.3 41.8 0.00 0.00 0.00 23 1011.3
20260503193043 21 335 19.3 41.8 0.00 0.00 0.00 25 1011.6
20260503191548 21 337 29.0 45.1 0.00 0.00 0.00 26 1011.8